Location: Canet
(43.3261°N, 5.3723°E)
Time: 18:55:56
(UTC+00:00)

SAR-Lupe-4 - Pass Details

Date: 24 January 2021
Orbit: 480 x 484 km, 98.2° (Epoch: 02 March)

Event Time Altitude Azimuth Distance (km) Brightness Sun altitude
Exits shadow 18:24:14 19° 9° (N) 1,197 5.4 -18.9°
Maximum altitude 18:26:40 78° 285° (WNW) 498 3.6 -19.3°
Drops below altitude 10° 18:30:13 10° 199° (SSW) 1,653 6.6 -20.0°
Sets 18:32:16 0° 198° (SSW) 2,527 7.5 -20.3°
